K5RWS Weather Reports


time (UTC)temp
C
wind
direction
speed
KPH
gust
KPH
rain 1hr
cm
rain 24hr
cm
rain mn
cm
humidity
%
barometer
mb
20260508074904 10 243 0.0 4.8 0.00 0.00 0.00 23 1018.4
20260508074401 10 246 1.6 3.2 0.00 0.00 0.00 23 1018.7
20260508073858 10 280 3.2 4.8 0.00 0.00 0.00 22 1018.7
20260508073356 8 280 3.2 6.4 0.00 0.00 0.00 24 1018.7
20260508072852 8 283 3.2 4.8 0.00 0.00 0.00 24 1018.9
20260508072348 8 244 1.6 3.2 0.00 0.00 0.00 25 1018.9
20260508071846 8 247 1.6 4.8 0.00 0.00 0.00 25 1018.8
20260508071344 10 213 4.8 4.8 0.00 0.00 0.00 24 1018.7
20260508070841 11 258 0.0 0.0 0.00 0.00 0.00 22 1018.8
20260508070339 12 283 0.0 0.0 0.00 0.00 0.00 21 1019.0
20260508065837 12 313 1.6 3.2 0.00 0.00 0.00 20 1018.9
20260508065335 12 282 0.0 0.0 0.00 0.00 0.00 21 1018.8
20260508064833 13 289 0.0 0.0 0.00 0.00 0.00 20 1019.0
20260508064330 13 330 1.6 3.2 0.00 0.00 0.00 19 1018.9
20260508063827 13 277 4.8 6.4 0.00 0.00 0.00 19 1018.9
20260508063325 15 291 3.2 6.4 0.00 0.00 0.00 18 1019.0
20260508062822 13 267 4.8 9.7 0.00 0.00 0.00 18 1018.9
20260508062320 13 256 0.0 1.6 0.00 0.00 0.00 19 1018.9
20260508061816 12 244 1.6 3.2 0.00 0.00 0.00 20 1018.7
20260508061314 11 241 3.2 4.8 0.00 0.00 0.00 21 1018.8
20260508060810 12 255 4.8 6.4 0.00 0.00 0.00 20 1018.7
20260508060308 12 224 0.0 3.2 0.00 0.00 0.00 20 1018.6
20260508055803 13 260 0.0 3.2 0.00 0.00 0.00 20 1018.8
20260508055300 12 248 3.2 4.8 0.00 0.00 0.00 19 1018.7
20260508054756 12 290 0.0 1.6 0.00 0.00 0.00 20 1018.7
20260508054255 13 222 0.0 0.0 0.00 0.00 0.00 19 1018.7
20260508053751 12 216 0.0 0.0 0.00 0.00 0.00 19 1018.8
20260508053249 12 210 0.0 0.0 0.00 0.00 0.00 19 1018.8
20260508052746 12 158 0.0 3.2 0.00 0.00 0.00 19 1018.8
20260508052243 13 182 0.0 0.0 0.00 0.00 0.00 18 1018.4
20260508051739 12 217 0.0 0.0 0.00 0.00 0.00 19 1018.6
20260508051234 12 167 0.0 0.0 0.00 0.00 0.00 20 1018.4
20260508050731 11 147 0.0 0.0 0.00 0.00 0.00 20 1018.4
20260508050229 12 186 0.0 0.0 0.00 0.00 0.00 20 1018.4
20260508045724 12 187 0.0 0.0 0.00 0.00 0.00 19 1018.4
20260508045222 12 211 0.0 0.0 0.00 0.00 0.00 19 1018.4
20260508044719 12 238 0.0 1.6 0.00 0.00 0.00 18 1018.4
20260508044216 13 237 0.0 0.0 0.00 0.00 0.00 18 1018.3
20260508043711 13 269 0.0 1.6 0.00 0.00 0.00 17 1018.3
20260508043210 14 257 3.2 4.8 0.00 0.00 0.00 17 1018.6
20260508042706 14 244 0.0 4.8 0.00 0.00 0.00 16 1018.4
20260508042203 15 275 1.6 4.8 0.00 0.00 0.00 16 1018.4
20260508041659 15 261 4.8 6.4 0.00 0.00 0.00 16 1018.3
20260508041156 14 278 3.2 11.3 0.00 0.00 0.00 16 1018.3
20260508040653 14 256 3.2 9.7 0.00 0.00 0.00 15 1018.6
20260508040150 15 278 8.0 11.3 0.00 0.00 0.00 15 1018.4
20260508035647 15 277 6.4 11.3 0.00 0.00 0.00 14 1018.2
20260508035145 15 260 1.6 9.7 0.00 0.00 0.00 14 1018.6
20260508034641 15 271 3.2 11.3 0.00 0.00 0.00 14 1018.2
20260508034139 15 291 6.4 9.7 0.00 0.00 0.00 14 1018.1
20260508033636 15 295 9.7 12.9 0.00 0.00 0.00 13 1018.2
20260508033134 15 287 8.0 11.3 0.00 0.00 0.00 13 1017.9
20260508032630 15 287 6.4 11.3 0.00 0.00 0.00 13 1018.1
20260508032128 15 275 4.8 11.3 0.00 0.00 0.00 13 1018.0
20260508031625 15 290 6.4 11.3 0.00 0.00 0.00 12 1017.7
20260508031121 15 297 4.8 11.3 0.00 0.00 0.00 12 1017.9
20260508030617 15 269 8.0 11.3 0.00 0.00 0.00 12 1017.7
20260508030115 16 280 6.4 12.9 0.00 0.00 0.00 12 1017.6
20260508025611 16 281 8.0 9.7 0.00 0.00 0.00 12 1017.6
20260508025108 16 280 4.8 6.4 0.00 0.00 0.00 12 1017.4
20260508024604 16 276 4.8 6.4 0.00 0.00 0.00 11 1017.2
20260508024102 17 284 6.4 6.4 0.00 0.00 0.00 11 1017.4
20260508023558 17 277 3.2 3.2 0.00 0.00 0.00 11 1017.3
20260508023055 17 284 3.2 4.8 0.00 0.00 0.00 10 1017.2
20260508022551 17 284 3.2 4.8 0.00 0.00 0.00 10 1016.9
20260508022049 18 293 3.2 6.4 0.00 0.00 0.00 10 1017.2
20260508021544 18 293 3.2 9.7 0.00 0.00 0.00 10 1017.0
20260508021040 18 275 6.4 6.4 0.00 0.00 0.00 10 1017.2
20260508020538 19 279 6.4 9.7 0.00 0.00 0.00 9 1016.8
20260508020036 20 284 6.4 6.4 0.00 0.00 0.00 9 1016.8
20260508015533 20 276 3.2 6.4 0.00 0.00 0.00 9 1016.8
20260508015030 21 296 6.4 6.4 0.00 0.00 0.00 9 1016.8
20260508014526 21 288 3.2 6.4 0.00 0.00 0.00 8 1016.7
20260508014022 22 276 3.2 6.4 0.00 0.00 0.00 8 1016.7
20260508013518 22 282 3.2 11.3 0.00 0.00 0.00 8 1016.4
20260508013016 22 296 6.4 11.3 0.00 0.00 0.00 8 1016.4
20260508012513 22 285 8.0 14.5 0.00 0.00 0.00 8 1016.6
20260508012010 22 283 6.4 12.9 0.00 0.00 0.00 7 1016.4
20260508011508 23 279 8.0 16.1 0.00 0.00 0.00 7 1016.2
20260508011005 23 288 9.7 14.5 0.00 0.00 0.00 7 1016.2
20260508010457 23 283 8.0 14.5 0.00 0.00 0.00 7 1016.1
20260508005954 23 278 8.0 22.5 0.00 0.00 0.00 7 1016.4
20260508005450 23 286 9.7 20.9 0.00 0.00 0.00 7 1016.4
20260508004947 23 271 3.2 4.8 0.00 0.00 0.00 7 1016.2
20260508004443 24 253 8.0 14.5 0.00 0.00 0.00 7 1016.3
20260508003939 24 200 0.0 4.8 0.00 0.00 0.00 10 1016.2
20260508003436 23 240 1.6 1.6 0.00 0.00 0.00 10 1016.0
20260508002933 23 244 1.6 9.7 0.00 0.00 0.00 11 1016.2
20260508002430 23 200 0.0 4.8 0.00 0.00 0.00 9 1016.3
20260508001926 23 220 4.8 20.9 0.00 0.00 0.00 11 1016.2
20260508001423 23 231 3.2 9.7 0.00 0.00 0.00 11 1016.0
20260508000919 23 209 4.8 12.9 0.00 0.00 0.00 11 1016.0
20260508000415 23 198 1.6 3.2 0.00 0.00 0.00 11 1016.0
20260507235912 23 180 0.0 9.7 0.00 0.00 0.00 11 1016.3
20260507235409 23 149 1.6 11.3 0.00 0.00 0.00 11 1016.3
20260507234906 23 133 0.0 9.7 0.00 0.00 0.00 11 1016.2
20260507234403 23 212 4.8 12.9 0.00 0.00 0.00 11 1016.3
20260507233859 24 249 6.4 14.5 0.00 0.00 0.00 10 1016.2
20260507233357 24 236 6.4 11.3 0.00 0.00 0.00 9 1016.2
20260507232855 23 147 0.0 3.2 0.00 0.00 0.00 11 1016.2
20260507232351 24 237 4.8 12.9 0.00 0.00 0.00 11 1016.3
20260507231849 24 203 1.6 11.3 0.00 0.00 0.00 11 1016.2
20260507231345 24 210 9.7 16.1 0.00 0.00 0.00 9 1016.3
20260507230841 25 257 8.0 16.1 0.00 0.00 0.00 9 1016.6
20260507230339 25 206 4.8 17.7 0.00 0.00 0.00 9 1016.6
20260507225838 24 240 8.0 11.3 0.00 0.00 0.00 8 1016.6
20260507225335 23 210 0.0 14.5 0.00 0.00 0.00 11 1016.4
20260507224831 23 199 8.0 16.1 0.00 0.00 0.00 11 1016.7
20260507224328 24 139 0.0 16.1 0.00 0.00 0.00 11 1016.7
20260507223824 23 199 8.0 11.3 0.00 0.00 0.00 12 1016.8
20260507223320 24 168 4.8 14.5 0.00 0.00 0.00 10 1016.9
20260507222818 24 149 4.8 17.7 0.00 0.00 0.00 11 1016.8
20260507222314 23 203 0.0 1.6 0.00 0.00 0.00 12 1016.8
20260507221811 22 37 4.8 6.4 0.00 0.00 0.00 13 1017.0
20260507221307 23 141 20.9 24.1 0.00 0.00 0.00 13 1017.0
20260507220803 23 59 0.0 16.1 0.00 0.00 0.00 13 1017.2
20260507220302 23 3 20.9 37.0 0.00 0.00 0.00 13 1016.9
20260507215758 23 222 3.2 14.5 0.00 0.00 0.00 13 1017.4
20260507215255 23 189 3.2 12.9 0.00 0.00 0.00 11 1017.6
20260507214752 23 188 4.8 16.1 0.00 0.00 0.00 14 1017.6
20260507214249 23 260 6.4 14.5 0.00 0.00 0.00 13 1017.7
20260507213744 24 210 8.0 12.9 0.00 0.00 0.00 11 1017.6
20260507213242 23 255 1.6 12.9 0.00 0.00 0.00 11 1018.0
20260507212738 22 146 6.4 12.9 0.00 0.00 0.00 15 1018.0
20260507212235 22 185 0.0 9.7 0.00 0.00 0.00 15 1018.2
20260507211732 22 197 8.0 16.1 0.00 0.00 0.00 14 1018.2
20260507211228 23 165 4.8 16.1 0.00 0.00 0.00 13 1018.2
20260507210725 22 183 0.0 1.6 0.00 0.00 0.00 13 1018.3
20260507210222 22 295 8.0 11.3 0.00 0.00 0.00 13 1018.4
20260507205718 22 210 8.0 14.5 0.00 0.00 0.00 12 1018.6
20260507205215 22 230 3.2 6.4 0.00 0.00 0.00 13 1018.9
20260507204711 22 204 1.6 9.7 0.00 0.00 0.00 14 1018.8
20260507204209 22 221 4.8 12.9 0.00 0.00 0.00 14 1018.8
20260507203707 22 159 9.7 17.7 0.00 0.00 0.00 14 1018.8
20260507203204 22 179 9.7 17.7 0.00 0.00 0.00 15 1019.1
20260507202659 22 55 3.2 17.7 0.00 0.00 0.00 15 1019.1
20260507202155 21 71 0.0 3.2 0.00 0.00 0.00 15 1019.4
20260507201650 21 214 0.0 12.9 0.00 0.00 0.00 15 1019.4
20260507201148 21 172 1.6 14.5 0.00 0.00 0.00 17 1019.4
20260507200644 21 219 6.4 14.5 0.00 0.00 0.00 17 1019.6
20260507200140 21 267 9.7 11.3 0.00 0.00 0.00 15 1019.6
20260507195637 21 212 8.0 14.5 0.00 0.00 0.00 16 1019.8
20260507195134 21 238 1.6 9.7 0.00 0.00 0.00 16 1020.0
20260507194631 20 220 1.6 12.9 0.00 0.00 0.00 14 1020.0
20260507194126 20 359 1.6 3.2 0.00 0.00 0.00 18 1020.2
20260507193624 20 218 0.0 6.4 0.00 0.00 0.00 19 1020.2
20260507193121 18 110 1.6 9.7 0.00 0.00 0.00 21 1020.2
20260507192617 20 132 1.6 6.4 0.00 0.00 0.00 22 1020.4
20260507192114 20 180 0.0 9.7 0.00 0.00 0.00 20 1020.3
20260507191610 20 163 0.0 0.0 0.00 0.00 0.00 20 1020.6
20260507191107 20 98 0.0 1.6 0.00 0.00 0.00 20 1020.6
20260507190604 19 182 1.6 3.2 0.00 0.00 0.00 22 1020.7
20260507185601 18 161 4.8 6.4 0.00 0.00 0.00 22 1020.9
20260507185056 18 139 6.4 16.1 0.00 0.00 0.00 23 1020.9
20260507184555 18 114 6.4 11.3 0.00 0.00 0.00 22 1021.1
20260507184052 18 126 6.4 11.3 0.00 0.00 0.00 22 1021.1
20260507183548 17 133 1.6 4.8 0.00 0.00 0.00 23 1021.3
20260507183046 17 134 8.0 16.1 0.00 0.00 0.00 24 1021.5
20260507182542 17 131 4.8 9.7 0.00 0.00 0.00 23 1021.5
20260507182038 18 102 0.0 9.7 0.00 0.00 0.00 23 1021.6
20260507181535 17 27 3.2 12.9 0.00 0.00 0.00 21 1021.6
20260507181031 18 50 0.0 3.2 0.00 0.00 0.00 21 1021.8
20260507180527 18 95 1.6 3.2 0.00 0.00 0.00 21 1021.7
20260507180025 18 106 4.8 6.4 0.00 0.00 0.00 22 1021.8
20260507175521 17 256 0.0 0.0 0.00 0.00 0.00 23 1022.0
20260507175019 16 49 0.0 6.4 0.00 0.00 0.00 26 1022.2
20260507174515 16 82 4.8 11.3 0.00 0.00 0.00 25 1022.1
20260507174013 15 69 0.0 12.9 0.00 0.00 0.00 26 1022.3
20260507173510 15 317 3.2 4.8 0.00 0.00 0.00 26 1022.4
20260507173007 15 335 6.4 14.5 0.00 0.00 0.00 27 1022.5
20260507172503 15 52 8.0 12.9 0.00 0.00 0.00 29 1022.8
20260507172000 15 276 6.4 16.1 0.00 0.00 0.00 29 1022.7
20260507171455 15 82 4.8 6.4 0.00 0.00 0.00 30 1022.9
20260507170953 15 64 1.6 11.3 0.00 0.00 0.00 31 1022.9
20260507170449 15 75 3.2 11.3 0.00 0.00 0.00 31 1023.0
20260507165946 15 59 3.2 9.7 0.00 0.00 0.00 30 1023.0
20260507165442 14 86 6.4 11.3 0.00 0.00 0.00 32 1023.0
20260507164938 13 29 3.2 9.7 0.00 0.00 0.00 35 1023.1
20260507164435 13 20 6.4 9.7 0.00 0.00 0.00 35 1023.2
20260507163932 12 59 1.6 9.7 0.00 0.00 0.00 38 1023.2
20260507163429 12 26 14.5 17.7 0.00 0.00 0.00 38 1023.0
20260507162926 12 51 0.0 9.7 0.00 0.00 0.00 39 1023.4
20260507162421 13 69 8.0 14.5 0.00 0.00 0.00 40 1023.5
20260507161919 12 28 4.8 11.3 0.00 0.00 0.00 40 1023.5
20260507161415 12 22 4.8 14.5 0.00 0.00 0.00 40 1023.7
20260507160912 12 358 8.0 11.3 0.00 0.00 0.00 42 1023.6
20260507160408 11 54 1.6 9.7 0.00 0.00 0.00 44 1023.6
20260507155904 11 40 6.4 11.3 0.00 0.00 0.00 44 1023.6
20260507155400 11 10 6.4 11.3 0.00 0.00 0.00 45 1023.6
20260507154857 10 35 6.4 14.5 0.00 0.00 0.00 46 1023.7
20260507154354 10 28 4.8 16.1 0.00 0.00 0.00 48 1023.9
20260507153851 10 39 8.0 12.9 0.00 0.00 0.00 50 1023.7
20260507153604 10 68 4.8 6.4 0.00 0.00 0.00 50 1023.9
20260507153347 10 68 4.8 6.4 0.00 0.00 0.00 50 1023.9
20260507153150 10 31 9.7 12.9 0.00 0.00 0.00 52 1023.9
20260507152844 10 31 9.7 12.9 0.00 0.00 0.00 52 1023.9
20260507152428 10 43 8.0 12.9 0.00 0.00 0.00 55 1024.1
20260507152340 10 72 6.4 9.7 0.00 0.00 0.00 52 1024.2
20260507151836 10 43 8.0 12.9 0.00 0.00 0.00 55 1024.1
20260507151333 9 16 4.8 11.3 0.00 0.00 0.00 55 1023.8
20260507150830 9 30 9.7 12.9 0.00 0.00 0.00 55 1024.1
20260507150326 8 51 3.2 12.9 0.00 0.00 0.00 57 1024.1
20260507145822 8 316 9.7 14.5 0.00 0.00 0.00 56 1023.9
20260507145319 8 353 8.0 14.5 0.00 0.00 0.00 58 1024.2
20260507144816 8 303 6.4 14.5 0.00 0.00 0.00 58 1024.1
20260507144313 8 359 12.9 16.1 0.00 0.00 0.00 57 1024.1
20260507143810 8 22 6.4 14.5 0.00 0.00 0.00 59 1024.4
20260507143307 8 6 9.7 11.3 0.00 0.00 0.00 59 1024.5
20260507142803 8 294 9.7 12.9 0.00 0.00 0.00 61 1024.7
20260507142300 7 302 3.2 11.3 0.00 0.00 0.00 62 1024.4
20260507141756 7 15 4.8 11.3 0.00 0.00 0.00 64 1024.5
20260507141254 7 15 6.4 14.5 0.00 0.00 0.00 64 1024.4
20260507140749 6 344 8.0 14.5 0.00 0.00 0.00 65 1024.7
20260507140247 6 34 4.8 11.3 0.00 0.00 0.00 65 1024.5
20260507135744 6 352 6.4 12.9 0.00 0.00 0.00 68 1024.7
20260507135241 6 345 6.4 12.9 0.00 0.00 0.00 68 1024.4
20260507134737 6 35 12.9 16.1 0.00 0.00 0.00 69 1024.5
20260507134234 6 30 8.0 14.5 0.00 0.00 0.00 69 1024.7
20260507133730 6 12 6.4 14.5 0.00 0.00 0.00 69 1024.7
20260507133227 6 23 9.7 12.9 0.00 0.00 0.00 69 1024.3
20260507132724 6 19 8.0 16.1 0.00 0.00 0.00 69 1024.3
20260507132221 6 19 9.7 14.5 0.00 0.00 0.00 69 1024.1
20260507131717 6 3 8.0 16.1 0.00 0.00 0.00 70 1024.3
20260507131215 6 21 4.8 9.7 0.00 0.00 0.00 70 1024.5
20260507130712 5 304 6.4 11.3 0.00 0.00 0.00 69 1024.4
20260507130210 5 0 4.8 11.3 0.00 0.00 0.00 70 1024.3
20260507125708 5 21 6.4 12.9 0.00 0.00 0.00 71 1024.4
20260507125205 5 39 8.0 11.3 0.00 0.00 0.00 71 1024.2
20260507124701 4 8 6.4 9.7 0.00 0.00 0.00 71 1024.2
20260507124159 4 5 1.6 3.2 0.00 0.00 0.00 71 1024.3
20260507123657 3 354 8.0 11.3 0.00 0.00 0.00 72 1024.3
20260507123154 3 330 4.8 6.4 0.00 0.00 0.00 73 1024.3
20260507122649 3 30 3.2 6.4 0.00 0.00 0.00 74 1024.1
20260507122145 2 350 1.6 3.2 0.00 0.00 0.00 74 1023.8
20260507121641 2 26 3.2 3.2 0.00 0.00 0.00 74 1023.8
20260507121137 3 12 3.2 9.7 0.00 0.00 0.00 74 1024.1
20260507120634 3 15 6.4 6.4 0.00 0.00 0.00 72 1023.7
20260507120130 3 5 4.8 4.8 0.00 0.00 0.00 72 1023.9
20260507115627 3 39 3.2 4.8 0.00 0.00 0.00 71 1023.9
20260507115122 4 16 6.4 9.7 0.00 0.00 0.00 71 1023.8
20260507114619 3 54 4.8 6.4 0.00 0.00 0.00 71 1023.7
20260507114116 3 284 4.8 9.7 0.00 0.00 0.00 71 1023.8
20260507113613 3 38 3.2 4.8 0.00 0.00 0.00 70 1023.8
20260507113110 4 351 3.2 4.8 0.00 0.00 0.00 69 1023.7
20260507112608 4 295 6.4 9.7 0.00 0.00 0.00 69 1023.8
20260507112104 4 309 8.0 11.3 0.00 0.00 0.00 69 1023.5
20260507111602 4 311 6.4 9.7 0.00 0.00 0.00 69 1023.9
20260507111058 4 320 3.2 6.4 0.00 0.00 0.00 69 1023.9
20260507110554 4 333 3.2 4.8 0.00 0.00 0.00 69 1023.8
20260507110051 4 288 4.8 6.4 0.00 0.00 0.00 68 1023.7
20260507105548 4 32 0.0 1.6 0.00 0.00 0.00 66 1023.7
20260507105044 5 91 1.6 4.8 0.00 0.00 0.00 66 1023.8
20260507104542 5 280 3.2 6.4 0.00 0.00 0.00 65 1023.6
20260507104038 5 297 4.8 17.7 0.00 0.00 0.00 64 1023.7
20260507103534 5 323 9.7 12.9 0.00 0.00 0.00 62 1023.6
20260507103031 5 301 8.0 14.5 0.00 0.00 0.00 61 1023.5
20260507102527 5 274 9.7 12.9 0.00 0.00 0.00 61 1023.5
20260507102023 5 321 9.7 14.5 0.00 0.00 0.00 61 1023.5
20260507101519 5 306 4.8 11.3 0.00 0.00 0.00 61 1023.6
20260507101016 5 308 6.4 11.3 0.00 0.00 0.00 60 1023.4
20260507100513 5 343 11.3 14.5 0.00 0.00 0.00 58 1023.5
20260507100011 5 293 11.3 14.5 0.00 0.00 0.00 58 1023.4
20260507095509 5 308 11.3 14.5 0.00 0.00 0.00 57 1023.5
20260507095005 5 317 12.9 16.1 0.00 0.00 0.00 55 1023.6
20260507094501 5 309 9.7 16.1 0.00 0.00 0.00 52 1023.4
20260507093959 5 312 9.7 14.5 0.00 0.00 0.00 48 1023.5
20260507093456 5 318 9.7 14.5 0.00 0.00 0.00 41 1023.5
20260507092954 6 317 8.0 9.7 0.00 0.00 0.00 45 1023.4
20260507092450 5 327 6.4 11.3 0.00 0.00 0.00 47 1023.4
20260507091947 5 11 0.0 6.4 0.00 0.00 0.00 45 1023.6
20260507091444 5 310 1.6 1.6 0.00 0.00 0.00 41 1023.6
20260507090940 5 315 0.0 3.2 0.00 0.00 0.00 39 1023.6
20260507090436 5 326 3.2 4.8 0.00 0.00 0.00 40 1023.4
20260507085932 6 26 6.4 9.7 0.00 0.00 0.00 38 1023.5
20260507085430 6 18 0.0 9.7 0.00 0.00 0.00 35 1023.5
20260507084927 7 346 4.8 9.7 0.00 0.00 0.00 34 1023.4
20260507084423 7 287 6.4 9.7 0.00 0.00 0.00 34 1023.4
20260507083915 7 318 8.0 14.5 0.00 0.00 0.00 34 1023.1
20260507083411 7 232 6.4 12.9 0.00 0.00 0.00 34 1023.2
20260507082907 7 350 4.8 11.3 0.00 0.00 0.00 35 1023.2
20260507082404 7 299 6.4 11.3 0.00 0.00 0.00 35 1022.9
20260507081901 7 326 3.2 4.8 0.00 0.00 0.00 34 1023.0
20260507081357 7 309 6.4 9.7 0.00 0.00 0.00 34 1023.2
20260507080854 6 307 4.8 11.3 0.00 0.00 0.00 36 1023.0
20260507080350 6 3 0.0 9.7 0.00 0.00 0.00 37 1023.2
20260507075845 6 41 6.4 11.3 0.00 0.00 0.00 37 1023.2